| time (UTC) | temp F | wind direction | speed MPH | gust MPH | rain 1hr in | rain 24hr in | rain mn in | humidity % | barometer mb |
| 20260502123100 | 54 | 54 | 1.0 | 3.0 | 0.00 | 0.00 | 0.00 | 41 | 1013.0 |
| 20260502122100 | 54 | 28 | 2.0 | 3.0 | 0.00 | 0.00 | 0.00 | 41 | 1013.0 |
| 20260502121059 | 54 | 17 | 0.0 | 5.0 | 0.00 | 0.00 | 0.00 | 41 | 1013.0 |
| 20260502115100 | 53 | 19 | 1.0 | 3.0 | 0.00 | 0.00 | 0.00 | 41 | 1013.0 |
| 20260502114100 | 53 | 359 | 2.0 | 3.0 | 0.00 | 0.00 | 0.00 | 41 | 1013.0 |
| 20260502113100 | 53 | 8 | 1.0 | 3.0 | 0.00 | 0.00 | 0.00 | 41 | 1013.0 |
| 20260502112100 | 53 | 0 | 1.0 | 5.0 | 0.00 | 0.00 | 0.00 | 41 | 1013.0 |
| 20260502111100 | 53 | 355 | 1.0 | 3.0 | 0.00 | 0.00 | 0.00 | 41 | 1013.0 |
| 20260502105100 | 53 | 20 | 0.0 | 0.0 | 0.00 | 0.00 | 0.00 | 41 | 1013.0 |
| 20260502104100 | 53 | 20 | 1.0 | 3.0 | 0.00 | 0.00 | 0.00 | 41 | 1013.0 |
| 20260502103100 | 54 | 20 | 0.0 | 3.0 | 0.00 | 0.00 | 0.00 | 41 | 1013.0 |
| 20260502102100 | 54 | 2 | 2.0 | 6.0 | 0.00 | 0.00 | 0.00 | 41 | 1013.0 |
| 20260502101059 | 54 | 29 | 1.0 | 3.0 | 0.00 | 0.00 | 0.00 | 41 | 1013.0 |
| 20260502091100 | 55 | 3 | 1.0 | 3.0 | 0.00 | 0.00 | 0.00 | 41 | 1013.0 |
| 20260502065100 | 57 | 349 | 2.0 | 5.0 | 0.00 | 0.00 | 0.00 | 41 | 1013.0 |
| 20260502064059 | 57 | 353 | 2.0 | 6.0 | 0.00 | 0.00 | 0.00 | 41 | 1013.0 |
| 20260502063100 | 57 | 340 | 2.0 | 7.0 | 0.00 | 0.00 | 0.00 | 41 | 1013.0 |
| 20260502062100 | 57 | 3 | 2.0 | 10.0 | 0.00 | 0.00 | 0.00 | 41 | 1013.0 |
| 20260502061101 | 57 | 355 | 1.0 | 3.0 | 0.00 | 0.00 | 0.00 | 41 | 1013.0 |
| 20260502055101 | 58 | 41 | 3.0 | 7.0 | 0.00 | 0.00 | 0.00 | 41 | 1013.0 |
| 20260502053100 | 58 | 4 | 3.0 | 8.0 | 0.00 | 0.00 | 0.00 | 41 | 1013.0 |
| 20260502052100 | 58 | 23 | 0.0 | 3.0 | 0.00 | 0.00 | 0.00 | 41 | 1013.0 |
| 20260502051100 | 58 | 48 | 1.0 | 6.0 | 0.00 | 0.00 | 0.00 | 41 | 1013.0 |
| 20260502045100 | 59 | 10 | 1.0 | 5.0 | 0.00 | 0.00 | 0.00 | 41 | 1013.0 |
| 20260502044101 | 59 | 355 | 2.0 | 6.0 | 0.00 | 0.00 | 0.00 | 41 | 1013.0 |
| 20260502042100 | 60 | 303 | 3.0 | 7.0 | 0.00 | 0.00 | 0.00 | 41 | 1013.0 |
| 20260502035101 | 61 | 338 | 1.0 | 3.0 | 0.00 | 0.00 | 0.00 | 41 | 1013.0 |
| 20260502034100 | 61 | 337 | 2.0 | 5.0 | 0.00 | 0.00 | 0.00 | 41 | 1013.0 |
| 20260502033100 | 61 | 353 | 2.0 | 7.0 | 0.00 | 0.00 | 0.00 | 41 | 1013.0 |
| 20260502032100 | 61 | 345 | 3.0 | 6.0 | 0.00 | 0.00 | 0.00 | 41 | 1013.0 |
| 20260502031101 | 61 | 335 | 3.0 | 6.0 | 0.00 | 0.00 | 0.00 | 41 | 1013.0 |
| 20260502025100 | 62 | 331 | 2.0 | 6.0 | 0.00 | 0.00 | 0.00 | 41 | 1013.0 |
| 20260502024100 | 62 | 345 | 4.0 | 9.0 | 0.00 | 0.00 | 0.00 | 41 | 1013.0 |
| 20260502023100 | 62 | 359 | 5.0 | 10.0 | 0.00 | 0.00 | 0.00 | 41 | 1013.0 |
| 20260502021100 | 63 | 345 | 5.0 | 10.0 | 0.00 | 0.00 | 0.00 | 41 | 1013.0 |
| 20260502015100 | 63 | 350 | 3.0 | 8.0 | 0.00 | 0.00 | 0.00 | 41 | 1013.0 |
| 20260502014100 | 63 | 335 | 2.0 | 7.0 | 0.00 | 0.00 | 0.00 | 41 | 1013.0 |
| 20260502012101 | 64 | 358 | 4.0 | 12.0 | 0.00 | 0.00 | 0.00 | 41 | 1013.0 |
| 20260502011100 | 64 | 353 | 6.0 | 10.0 | 0.00 | 0.00 | 0.00 | 41 | 1013.0 |
| 20260502005100 | 65 | 329 | 1.0 | 7.0 | 0.00 | 0.00 | 0.00 | 41 | 1013.0 |
| 20260502004100 | 65 | 354 | 2.0 | 5.0 | 0.00 | 0.00 | 0.00 | 41 | 1013.0 |
| 20260502003100 | 65 | 331 | 0.0 | 5.0 | 0.00 | 0.00 | 0.00 | 41 | 1013.0 |
| 20260502002100 | 66 | 295 | 0.0 | 3.0 | 0.00 | 0.00 | 0.00 | 41 | 1013.0 |
| 20260502001100 | 66 | 349 | 0.0 | 3.0 | 0.00 | 0.00 | 0.00 | 41 | 1013.0 |
| 20260501235101 | 66 | 228 | 0.0 | 3.0 | 0.00 | 0.00 | 0.00 | 41 | 1013.0 |
| 20260501234101 | 67 | 338 | 1.0 | 3.0 | 0.00 | 0.00 | 0.00 | 41 | 1013.0 |
| 20260501233101 | 68 | 343 | 0.0 | 2.0 | 0.00 | 0.00 | 0.00 | 41 | 1013.0 |
| 20260501232100 | 68 | 334 | 1.0 | 5.0 | 0.00 | 0.00 | 0.00 | 41 | 1013.0 |
| 20260501231101 | 68 | 309 | 0.0 | 3.0 | 0.00 | 0.00 | 0.00 | 41 | 1013.0 |
| 20260501225101 | 69 | 252 | 2.0 | 3.0 | 0.00 | 0.00 | 0.00 | 41 | 1013.0 |
| 20260501224100 | 69 | 252 | 1.0 | 3.0 | 0.00 | 0.00 | 0.00 | 41 | 1013.0 |
| 20260501223100 | 69 | 251 | 2.0 | 5.0 | 0.00 | 0.00 | 0.00 | 41 | 1013.0 |
| 20260501222101 | 69 | 256 | 5.0 | 7.0 | 0.00 | 0.00 | 0.00 | 41 | 1013.0 |
| 20260501221100 | 69 | 223 | 1.0 | 3.0 | 0.00 | 0.00 | 0.00 | 41 | 1013.0 |
| 20260501215101 | 69 | 195 | 2.0 | 7.0 | 0.00 | 0.00 | 0.00 | 41 | 1013.0 |
| 20260501214100 | 70 | 276 | 1.0 | 3.0 | 0.00 | 0.00 | 0.00 | 41 | 1013.0 |
| 20260501213101 | 70 | 280 | 3.0 | 10.0 | 0.00 | 0.00 | 0.00 | 41 | 1013.0 |
| 20260501212100 | 70 | 259 | 1.0 | 3.0 | 0.00 | 0.00 | 0.00 | 41 | 1013.0 |
| 20260501205100 | 71 | 191 | 1.0 | 7.0 | 0.00 | 0.00 | 0.00 | 41 | 1013.0 |
| 20260501203100 | 70 | 205 | 1.0 | 7.0 | 0.00 | 0.00 | 0.00 | 41 | 1013.0 |
| 20260501202101 | 71 | 209 | 2.0 | 10.0 | 0.00 | 0.00 | 0.00 | 41 | 1013.0 |
| 20260501201100 | 71 | 195 | 5.0 | 12.0 | 0.00 | 0.00 | 0.00 | 41 | 1013.0 |
| 20260501194100 | 70 | 242 | 5.0 | 10.0 | 0.00 | 0.00 | 0.00 | 41 | 1013.0 |
| 20260501193100 | 70 | 291 | 3.0 | 8.0 | 0.00 | 0.00 | 0.00 | 41 | 1013.0 |
| 20260501192101 | 70 | 271 | 4.0 | 10.0 | 0.00 | 0.00 | 0.00 | 41 | 1013.0 |
| 20260501191101 | 70 | 264 | 7.0 | 15.0 | 0.00 | 0.00 | 0.00 | 41 | 1013.0 |
| 20260501185100 | 71 | 286 | 6.0 | 12.0 | 0.00 | 0.00 | 0.00 | 41 | 1013.0 |
| 20260501184101 | 71 | 165 | 3.0 | 9.0 | 0.00 | 0.00 | 0.00 | 41 | 1013.0 |
| 20260501183101 | 71 | 234 | 4.0 | 10.0 | 0.00 | 0.00 | 0.00 | 41 | 1013.0 |
| 20260501182100 | 71 | 205 | 2.0 | 7.0 | 0.00 | 0.00 | 0.00 | 41 | 1013.0 |
| 20260501181101 | 71 | 259 | 3.0 | 10.0 | 0.00 | 0.00 | 0.00 | 41 | 1013.0 |
| 20260501175100 | 70 | 261 | 5.0 | 10.0 | 0.00 | 0.00 | 0.00 | 41 | 1013.0 |
| 20260501174102 | 70 | 301 | 2.0 | 9.0 | 0.00 | 0.00 | 0.00 | 41 | 1013.0 |
| 20260501173100 | 69 | 243 | 3.0 | 7.0 | 0.00 | 0.00 | 0.00 | 41 | 1013.0 |
| 20260501172100 | 69 | 224 | 2.0 | 6.0 | 0.00 | 0.00 | 0.00 | 41 | 1013.0 |
| 20260501165101 | 67 | 274 | 2.0 | 7.0 | 0.00 | 0.00 | 0.00 | 41 | 1013.0 |
| 20260501164101 | 66 | 194 | 6.0 | 12.0 | 0.00 | 0.00 | 0.00 | 41 | 1013.0 |
| 20260501163101 | 66 | 247 | 3.0 | 6.0 | 0.00 | 0.00 | 0.00 | 41 | 1013.0 |
| 20260501161101 | 65 | 215 | 5.0 | 9.0 | 0.00 | 0.00 | 0.00 | 41 | 1013.0 |
| 20260501155100 | 64 | 189 | 1.0 | 7.0 | 0.00 | 0.00 | 0.00 | 41 | 1013.0 |
| 20260501154100 | 63 | 243 | 3.0 | 6.0 | 0.00 | 0.00 | 0.00 | 41 | 1013.0 |
| 20260501153100 | 63 | 198 | 5.0 | 8.0 | 0.00 | 0.00 | 0.00 | 41 | 1013.0 |
| 20260501152100 | 62 | 36 | 2.0 | 5.0 | 0.00 | 0.00 | 0.00 | 41 | 1013.0 |
| 20260501151100 | 62 | 10 | 1.0 | 5.0 | 0.00 | 0.00 | 0.00 | 41 | 1013.0 |
| 20260501144100 | 59 | 43 | 2.0 | 5.0 | 0.00 | 0.00 | 0.00 | 41 | 1013.0 |
| 20260501143101 | 59 | 42 | 2.0 | 5.0 | 0.00 | 0.00 | 0.00 | 41 | 1013.0 |
| 20260501142101 | 58 | 66 | 3.0 | 6.0 | 0.00 | 0.00 | 0.00 | 41 | 1013.0 |